| time (UTC) | temp F | wind direction | speed knots | gust knots | rain 1hr in | rain 24hr in | rain mn in | humidity % | barometer mb |
| 20260504110104 | 50 | 223 | 0.9 | 2.6 | 0.00 | 0.00 | 0.00 | 68 | 1008.0 |
| 20260504081926 | 51 | 231 | 0.0 | 1.7 | 0.00 | 0.00 | 0.00 | 69 | 1008.2 |
| 20260504081648 | 51 | 260 | 0.0 | 1.7 | 0.00 | 0.00 | 0.00 | 70 | 1008.1 |
| 20260504080922 | 51 | 223 | 0.0 | 2.6 | 0.00 | 0.00 | 0.00 | 70 | 1008.1 |
| 20260504080422 | 50 | 229 | 0.0 | 2.6 | 0.00 | 0.00 | 0.00 | 71 | 1008.1 |
| 20260504070408 | 49 | 259 | 0.0 | 1.7 | 0.00 | 0.00 | 0.00 | 73 | 1008.3 |
| 20260504050713 | 44 | 242 | 0.0 | 0.9 | 0.00 | 0.00 | 0.00 | 77 | 1008.5 |
| 20260504050208 | 44 | 152 | 0.0 | 0.0 | 0.00 | 0.00 | 0.00 | 76 | 1008.5 |
| 20260504045702 | 44 | 152 | 0.0 | 0.0 | 0.00 | 0.00 | 0.00 | 75 | 1008.4 |
| 20260504045156 | 43 | 152 | 0.0 | 0.0 | 0.00 | 0.00 | 0.00 | 75 | 1008.3 |
| 20260504044650 | 43 | 152 | 0.0 | 0.0 | 0.00 | 0.00 | 0.00 | 75 | 1008.4 |
| 20260504044144 | 43 | 152 | 0.0 | 0.0 | 0.00 | 0.00 | 0.00 | 74 | 1008.4 |
| 20260504043638 | 43 | 152 | 0.0 | 0.0 | 0.00 | 0.00 | 0.00 | 74 | 1008.4 |
| 20260504043132 | 43 | 152 | 0.0 | 0.0 | 0.00 | 0.00 | 0.00 | 73 | 1008.4 |
| 20260504042850 | 43 | 152 | 0.0 | 0.0 | 0.00 | 0.00 | 0.00 | 73 | 1008.4 |
| 20260504042120 | 43 | 153 | 0.0 | 0.0 | 0.00 | 0.00 | 0.00 | 72 | 1008.4 |
| 20260504041614 | 43 | 153 | 0.0 | 0.0 | 0.00 | 0.00 | 0.00 | 73 | 1008.5 |
| 20260504040602 | 43 | 153 | 0.0 | 0.0 | 0.00 | 0.00 | 0.00 | 72 | 1008.4 |
| 20260504040057 | 43 | 153 | 0.0 | 0.0 | 0.00 | 0.00 | 0.00 | 71 | 1008.5 |
| 20260504035549 | 43 | 153 | 0.0 | 0.0 | 0.00 | 0.00 | 0.00 | 71 | 1008.4 |
| 20260504035043 | 43 | 153 | 0.0 | 0.0 | 0.00 | 0.00 | 0.00 | 72 | 1008.4 |
| 20260504034537 | 43 | 153 | 0.0 | 0.0 | 0.00 | 0.00 | 0.00 | 72 | 1008.3 |
| 20260504034258 | 42 | 153 | 0.0 | 0.0 | 0.00 | 0.00 | 0.00 | 72 | 1008.2 |
| 20260504033526 | 42 | 153 | 0.0 | 0.0 | 0.00 | 0.00 | 0.00 | 73 | 1008.3 |
| 20260504033019 | 42 | 153 | 0.0 | 0.0 | 0.00 | 0.00 | 0.00 | 73 | 1008.3 |
| 20260504032738 | 43 | 153 | 0.0 | 0.0 | 0.00 | 0.00 | 0.00 | 74 | 1008.1 |
| 20260504032007 | 43 | 153 | 0.0 | 0.0 | 0.00 | 0.00 | 0.00 | 75 | 1008.2 |
| 20260504031502 | 43 | 153 | 0.0 | 0.0 | 0.00 | 0.00 | 0.00 | 74 | 1008.1 |
| 20260504030956 | 43 | 219 | 0.0 | 0.0 | 0.00 | 0.00 | 0.00 | 74 | 1008.0 |
| 20260504030449 | 43 | 219 | 0.0 | 0.0 | 0.00 | 0.00 | 0.00 | 75 | 1008.0 |
| 20260504025943 | 43 | 219 | 0.0 | 0.0 | 0.00 | 0.00 | 0.00 | 75 | 1008.0 |
| 20260504025437 | 43 | 219 | 0.0 | 0.9 | 0.00 | 0.00 | 0.00 | 77 | 1008.0 |
| 20260504024931 | 43 | 219 | 0.0 | 1.7 | 0.00 | 0.00 | 0.00 | 77 | 1008.0 |
| 20260504024427 | 43 | 219 | 0.0 | 1.7 | 0.00 | 0.00 | 0.00 | 77 | 1007.9 |
| 20260504023924 | 43 | 202 | 0.0 | 0.0 | 0.00 | 0.00 | 0.00 | 77 | 1007.9 |
| 20260504023641 | 43 | 201 | 0.0 | 0.0 | 0.00 | 0.00 | 0.00 | 76 | 1007.9 |
| 20260504022924 | 43 | 202 | 0.0 | 0.0 | 0.00 | 0.00 | 0.00 | 75 | 1007.9 |
| 20260504022421 | 43 | 202 | 0.0 | 0.0 | 0.00 | 0.00 | 0.00 | 75 | 1007.9 |
| 20260504022144 | 43 | 202 | 0.0 | 0.0 | 0.00 | 0.00 | 0.00 | 75 | 1007.9 |
| 20260504021419 | 43 | 202 | 0.0 | 0.0 | 0.00 | 0.00 | 0.00 | 76 | 1007.9 |
| 20260504020917 | 43 | 202 | 0.0 | 0.0 | 0.00 | 0.00 | 0.00 | 74 | 1007.9 |
| 20260504020415 | 43 | 202 | 0.0 | 0.0 | 0.00 | 0.00 | 0.00 | 74 | 1007.8 |
| 20260504015914 | 43 | 202 | 0.0 | 0.0 | 0.00 | 0.00 | 0.00 | 73 | 1007.8 |
| 20260504015411 | 44 | 202 | 0.0 | 0.0 | 0.00 | 0.00 | 0.00 | 73 | 1007.7 |
| 20260504014911 | 44 | 202 | 0.0 | 0.0 | 0.00 | 0.00 | 0.00 | 72 | 1007.7 |
| 20260504014414 | 44 | 202 | 0.0 | 0.0 | 0.00 | 0.00 | 0.00 | 70 | 1007.7 |
| 20260504013909 | 44 | 202 | 0.0 | 0.0 | 0.00 | 0.00 | 0.00 | 69 | 1007.7 |
| 20260504013407 | 44 | 202 | 0.0 | 0.0 | 0.00 | 0.00 | 0.00 | 69 | 1007.7 |
| 20260504012906 | 45 | 202 | 0.0 | 0.0 | 0.00 | 0.00 | 0.00 | 68 | 1007.7 |
| 20260504012628 | 45 | 202 | 0.0 | 0.0 | 0.00 | 0.00 | 0.00 | 67 | 1007.6 |
| 20260504012125 | 46 | 202 | 0.0 | 0.0 | 0.00 | 0.00 | 0.00 | 66 | 1007.6 |
| 20260504011400 | 46 | 202 | 0.0 | 0.0 | 0.00 | 0.00 | 0.00 | 66 | 1007.5 |
| 20260504010858 | 46 | 202 | 0.0 | 0.0 | 0.00 | 0.00 | 0.00 | 65 | 1007.5 |
| 20260504010355 | 47 | 202 | 0.0 | 0.0 | 0.00 | 0.00 | 0.00 | 64 | 1007.5 |
| 20260504005854 | 47 | 202 | 0.0 | 0.0 | 0.00 | 0.00 | 0.00 | 60 | 1007.5 |
| 20260504004844 | 48 | 202 | 0.0 | 0.0 | 0.00 | 0.00 | 0.00 | 58 | 1007.5 |
| 20260504004336 | 49 | 202 | 0.0 | 0.0 | 0.00 | 0.00 | 0.00 | 57 | 1007.4 |
| 20260504003831 | 49 | 202 | 0.0 | 0.0 | 0.00 | 0.00 | 0.00 | 56 | 1007.4 |
| 20260504003324 | 50 | 202 | 0.0 | 0.0 | 0.00 | 0.00 | 0.00 | 54 | 1007.3 |
| 20260504002819 | 50 | 202 | 0.0 | 0.0 | 0.00 | 0.00 | 0.00 | 53 | 1007.2 |
| 20260504002314 | 51 | 202 | 0.0 | 0.0 | 0.00 | 0.00 | 0.00 | 51 | 1007.1 |
| 20260504002036 | 52 | 202 | 0.0 | 0.0 | 0.00 | 0.00 | 0.00 | 50 | 1007.1 |
| 20260504001302 | 53 | 202 | 0.0 | 0.0 | 0.00 | 0.00 | 0.00 | 49 | 1007.0 |
| 20260504000754 | 53 | 202 | 0.0 | 0.0 | 0.00 | 0.00 | 0.00 | 47 | 1007.0 |
| 20260504000520 | 54 | 202 | 0.0 | 0.0 | 0.00 | 0.00 | 0.00 | 45 | 1006.9 |
| 20260503235743 | 55 | 202 | 0.0 | 0.0 | 0.00 | 0.00 | 0.00 | 43 | 1006.9 |
| 20260503235236 | 56 | 202 | 0.0 | 0.0 | 0.00 | 0.00 | 0.00 | 42 | 1006.9 |
| 20260503234730 | 57 | 138 | 0.0 | 0.0 | 0.00 | 0.00 | 0.00 | 40 | 1006.8 |
| 20260503234225 | 58 | 138 | 0.0 | 0.9 | 0.00 | 0.00 | 0.00 | 39 | 1006.8 |
| 20260503233719 | 58 | 138 | 0.0 | 0.9 | 0.00 | 0.00 | 0.00 | 37 | 1006.8 |
| 20260503233214 | 59 | 138 | 0.0 | 0.9 | 0.00 | 0.00 | 0.00 | 36 | 1006.7 |
| 20260503232706 | 60 | 202 | 0.0 | 2.6 | 0.00 | 0.00 | 0.00 | 35 | 1006.7 |
| 20260503232201 | 60 | 157 | 0.0 | 2.6 | 0.00 | 0.00 | 0.00 | 33 | 1006.7 |
| 20260503231655 | 61 | 148 | 0.0 | 2.6 | 0.00 | 0.00 | 0.00 | 33 | 1006.6 |
| 20260503231149 | 62 | 243 | 0.0 | 2.6 | 0.00 | 0.00 | 0.00 | 32 | 1006.6 |
| 20260503230644 | 62 | 146 | 0.0 | 3.5 | 0.00 | 0.00 | 0.00 | 33 | 1006.6 |
| 20260503230136 | 63 | 181 | 0.9 | 6.1 | 0.00 | 0.00 | 0.00 | 33 | 1006.7 |
| 20260503225631 | 63 | 219 | 0.9 | 6.1 | 0.00 | 0.00 | 0.00 | 33 | 1006.7 |
| 20260503225125 | 63 | 113 | 0.0 | 2.6 | 0.00 | 0.00 | 0.00 | 33 | 1006.7 |
| 20260503224619 | 63 | 63 | 0.0 | 2.6 | 0.00 | 0.00 | 0.00 | 32 | 1006.7 |
| 20260503224119 | 63 | 262 | 0.9 | 4.3 | 0.00 | 0.00 | 0.00 | 33 | 1006.7 |
| 20260503223619 | 63 | 63 | 1.7 | 7.0 | 0.00 | 0.00 | 0.00 | 32 | 1006.8 |
| 20260503223119 | 63 | 86 | 0.9 | 7.0 | 0.00 | 0.00 | 0.00 | 30 | 1006.7 |
| 20260503222841 | 63 | 262 | 0.9 | 5.2 | 0.00 | 0.00 | 0.00 | 33 | 1006.7 |
| 20260503222115 | 63 | 252 | 1.7 | 7.8 | 0.00 | 0.00 | 0.00 | 31 | 1006.7 |
| 20260503221836 | 63 | 247 | 2.6 | 7.8 | 0.00 | 0.00 | 0.00 | 30 | 1006.7 |
| 20260503221114 | 64 | 221 | 0.9 | 7.0 | 0.00 | 0.00 | 0.00 | 31 | 1006.7 |
| 20260503220614 | 64 | 264 | 0.9 | 7.0 | 0.00 | 0.00 | 0.00 | 32 | 1006.7 |
| 20260503220114 | 63 | 216 | 1.7 | 7.0 | 0.00 | 0.00 | 0.00 | 31 | 1006.8 |
| 20260503215836 | 64 | 118 | 1.7 | 10.4 | 0.00 | 0.00 | 0.00 | 30 | 1006.7 |
| 20260503215111 | 64 | 256 | 1.7 | 10.4 | 0.00 | 0.00 | 0.00 | 30 | 1006.7 |
| 20260503214611 | 64 | 198 | 1.7 | 8.7 | 0.00 | 0.00 | 0.00 | 32 | 1006.8 |
| 20260503214330 | 64 | 238 | 1.7 | 5.2 | 0.00 | 0.00 | 0.00 | 32 | 1006.8 |
| 20260503213609 | 64 | 282 | 1.7 | 8.7 | 0.00 | 0.00 | 0.00 | 31 | 1006.7 |
| 20260503213107 | 64 | 353 | 1.7 | 8.7 | 0.00 | 0.00 | 0.00 | 31 | 1006.7 |
| 20260503212605 | 64 | 215 | 1.7 | 5.2 | 0.00 | 0.00 | 0.00 | 31 | 1006.7 |
| 20260503212105 | 64 | 166 | 1.7 | 7.0 | 0.00 | 0.00 | 0.00 | 34 | 1006.7 |
| 20260503211607 | 64 | 32 | 1.7 | 8.7 | 0.00 | 0.00 | 0.00 | 31 | 1006.6 |
| 20260503211326 | 64 | 300 | 1.7 | 8.7 | 0.00 | 0.00 | 0.00 | 32 | 1006.7 |
| 20260503210559 | 63 | 163 | 1.7 | 8.7 | 0.00 | 0.00 | 0.00 | 32 | 1006.7 |
| 20260503210053 | 63 | 125 | 2.6 | 8.7 | 0.00 | 0.00 | 0.00 | 30 | 1006.7 |
| 20260503205547 | 64 | 19 | 2.6 | 8.7 | 0.00 | 0.00 | 0.00 | 32 | 1006.7 |
| 20260503205306 | 64 | 170 | 1.7 | 7.0 | 0.00 | 0.00 | 0.00 | 32 | 1006.8 |
| 20260503204536 | 64 | 219 | 1.7 | 7.0 | 0.00 | 0.00 | 0.00 | 32 | 1006.8 |
| 20260503204029 | 64 | 93 | 1.7 | 6.1 | 0.00 | 0.00 | 0.00 | 34 | 1006.8 |
| 20260503203523 | 64 | 168 | 1.7 | 7.0 | 0.00 | 0.00 | 0.00 | 34 | 1007.0 |
| 20260503203017 | 63 | 219 | 0.9 | 7.0 | 0.00 | 0.00 | 0.00 | 36 | 1006.9 |
| 20260503202511 | 63 | 131 | 0.9 | 7.0 | 0.00 | 0.00 | 0.00 | 36 | 1007.0 |
| 20260503202006 | 63 | 172 | 1.7 | 7.0 | 0.00 | 0.00 | 0.00 | 35 | 1007.0 |
| 20260503201500 | 62 | 288 | 1.7 | 7.8 | 0.00 | 0.00 | 0.00 | 37 | 1007.2 |
| 20260503200954 | 62 | 21 | 2.6 | 7.8 | 0.00 | 0.00 | 0.00 | 36 | 1007.2 |
| 20260503200448 | 63 | 51 | 2.6 | 9.6 | 0.00 | 0.00 | 0.00 | 39 | 1007.3 |
| 20260503195941 | 63 | 94 | 2.6 | 9.6 | 0.00 | 0.00 | 0.00 | 37 | 1007.5 |
| 20260503195437 | 63 | 67 | 1.7 | 8.7 | 0.00 | 0.00 | 0.00 | 34 | 1007.5 |
| 20260503194928 | 62 | 342 | 1.7 | 8.7 | 0.00 | 0.00 | 0.00 | 38 | 1007.5 |
| 20260503194423 | 62 | 81 | 1.7 | 6.1 | 0.00 | 0.00 | 0.00 | 41 | 1007.7 |
| 20260503194148 | 62 | 45 | 2.6 | 7.0 | 0.00 | 0.00 | 0.00 | 37 | 1007.5 |
| 20260503193411 | 62 | 239 | 1.7 | 7.0 | 0.00 | 0.00 | 0.00 | 37 | 1007.6 |
| 20260503193130 | 62 | 316 | 2.6 | 8.7 | 0.00 | 0.00 | 0.00 | 38 | 1007.7 |
| 20260503192624 | 61 | 50 | 2.6 | 8.7 | 0.00 | 0.00 | 0.00 | 36 | 1007.8 |
| 20260503192114 | 61 | 228 | 1.7 | 7.8 | 0.00 | 0.00 | 0.00 | 36 | 1007.8 |
| 20260503191347 | 61 | 51 | 0.9 | 4.3 | 0.00 | 0.00 | 0.00 | 37 | 1007.9 |
| 20260503190841 | 61 | 155 | 1.7 | 11.3 | 0.00 | 0.00 | 0.00 | 37 | 1007.9 |
| 20260503190336 | 61 | 95 | 2.6 | 11.3 | 0.00 | 0.00 | 0.00 | 37 | 1008.0 |
| 20260503185829 | 60 | 101 | 2.6 | 11.3 | 0.00 | 0.00 | 0.00 | 39 | 1008.1 |
| 20260503185323 | 60 | 201 | 2.6 | 11.3 | 0.00 | 0.00 | 0.00 | 35 | 1008.0 |
| 20260503184817 | 60 | 58 | 2.6 | 11.3 | 0.00 | 0.00 | 0.00 | 37 | 1008.2 |
| 20260503184311 | 60 | 270 | 2.6 | 7.8 | 0.00 | 0.00 | 0.00 | 40 | 1008.2 |
| 20260503183807 | 60 | 282 | 2.6 | 8.7 | 0.00 | 0.00 | 0.00 | 38 | 1008.4 |
| 20260503183259 | 60 | 64 | 2.6 | 8.7 | 0.00 | 0.00 | 0.00 | 39 | 1008.4 |
| 20260503182753 | 60 | 162 | 1.7 | 7.0 | 0.00 | 0.00 | 0.00 | 37 | 1008.4 |
| 20260503182246 | 60 | 345 | 2.6 | 9.6 | 0.00 | 0.00 | 0.00 | 40 | 1008.4 |
| 20260503181741 | 60 | 152 | 2.6 | 9.6 | 0.00 | 0.00 | 0.00 | 40 | 1008.5 |
| 20260503181236 | 60 | 293 | 1.7 | 8.7 | 0.00 | 0.00 | 0.00 | 44 | 1008.4 |
| 20260503180730 | 59 | 62 | 1.7 | 8.7 | 0.00 | 0.00 | 0.00 | 37 | 1008.4 |
| 20260503180231 | 59 | 99 | 1.7 | 9.6 | 0.00 | 0.00 | 0.00 | 40 | 1008.4 |
| 20260503175729 | 58 | 135 | 3.5 | 13.0 | 0.00 | 0.00 | 0.00 | 37 | 1008.4 |
| 20260503175229 | 58 | 203 | 2.6 | 13.0 | 0.00 | 0.00 | 0.00 | 40 | 1008.5 |
| 20260503174229 | 59 | 49 | 1.7 | 6.1 | 0.00 | 0.00 | 0.00 | 41 | 1008.6 |
| 20260503173728 | 58 | 25 | 1.7 | 7.0 | 0.00 | 0.00 | 0.00 | 44 | 1008.6 |
| 20260503172728 | 58 | 117 | 1.7 | 10.4 | 0.00 | 0.00 | 0.00 | 39 | 1008.4 |
| 20260503172229 | 58 | 257 | 2.6 | 9.6 | 0.00 | 0.00 | 0.00 | 43 | 1008.5 |
| 20260503171730 | 57 | 206 | 2.6 | 11.3 | 0.00 | 0.00 | 0.00 | 41 | 1008.6 |
| 20260503171227 | 57 | 207 | 2.6 | 11.3 | 0.00 | 0.00 | 0.00 | 44 | 1008.7 |
| 20260503170727 | 57 | 84 | 2.6 | 9.6 | 0.00 | 0.00 | 0.00 | 39 | 1008.8 |
| 20260503170446 | 57 | 323 | 0.9 | 7.0 | 0.00 | 0.00 | 0.00 | 42 | 1008.7 |
| 20260503150718 | 53 | 219 | 1.7 | 9.6 | 0.00 | 0.00 | 0.00 | 44 | 1009.2 |
| 20260503150220 | 53 | 162 | 1.7 | 8.7 | 0.00 | 0.00 | 0.00 | 47 | 1009.4 |
| 20260503140214 | 51 | 354 | 1.7 | 7.8 | 0.00 | 0.00 | 0.00 | 51 | 1009.5 |
| 20260503131156 | 48 | 115 | 1.7 | 6.1 | 0.00 | 0.00 | 0.00 | 57 | 1009.6 |
| 20260503130651 | 48 | 58 | 1.7 | 6.1 | 0.00 | 0.00 | 0.00 | 60 | 1009.6 |
| 20260503130144 | 48 | 241 | 1.7 | 7.0 | 0.00 | 0.00 | 0.00 | 59 | 1009.5 |